Provincetown, MA

9:09 PM EST on December 17, 2017 (GMT -0500)
Provincetown Municipal

Weather History for KPVC - September, 2013

Change the Weather History Date:

Tuesday, September 10, 2013

  Actual Average Record
Temperature  
Mean Temperature 66 °F -  
Max Temperature 71 °F 70 °F 81 °F (2016)
Min Temperature 60 °F 57 °F 41 °F (2003)
Growing Degree Days 16 (Base 50)    
Moisture  
Dew Point 59 °F    
Average Humidity 78    
Maximum Humidity 94    
Minimum Humidity 68    
Precipitation  
Precipitation 3.74 in - - ()
Sea Level Pressure  
Sea Level Pressure 30.14 in    
Wind  
Wind Speed 13 mph (SSW)    
Max Wind Speed 18 mph    
Max Gust Speed 26 mph    
Visibility 10 miles    
Events      
Averages and records for this station are not official NWS values.
T = Trace of Precipitation, MM = Missing Value Source: NWS Daily Summary

Daily Weather History Graph

Daily Weather History Graph

Search for Another Location

Airport or City:

Trip Planner

Search our weather history database for the weather conditions in past years. The results will help you decide how hot, cold, wet, or windy it might be!

Date:

Astronomy

Sep. 10, 2013 Rise Set
Actual Time 6:15 AM EDT 6:58 PM EDT
Civil Twilight 5:47 AM EDT 7:26 PM EDT
Nautical Twilight 5:14 AM EDT 8:00 PM EDT
Astronomical Twilight 4:39 AM EDT 8:34 PM EDT
Moon 11:44 AM EDT (9/10) 9:53 PM EDT (9/10)
Length of Visible Light 13h 39m
Length of Day
12h 42m
Waxing Crescent, 28% of the Moon is Illuminated
Sep 10
Waxing Crescent
Sep 12
First Quarter
Sep 19
Full
Sep 26
Last Quarter
Oct 4
New

Hourly Weather History & Observations

Time (EDT) Temp. Dew Point Humidity Pressure Visibility Wind Dir Wind Speed Gust Speed Precip Events Conditions
12:15 AM 60.8 °F 53.6 °F 77% 30.19 in 10.0 mi SW 10.4 mph - 0.08 in   Clear
12:35 AM 60.8 °F 53.6 °F 77% 30.19 in 10.0 mi SW 11.5 mph - 0.08 in   Clear
12:55 AM 60.8 °F 53.6 °F 77% 30.20 in 10.0 mi SSW 12.7 mph - 0.11 in   Clear
1:15 AM 60.8 °F 55.4 °F 82% 30.19 in 10.0 mi SSW 10.4 mph - 0.15 in   Clear
1:35 AM 60.8 °F 53.6 °F 77% 30.18 in 10.0 mi SSW 11.5 mph - 0.27 in   Clear
1:55 AM 62.6 °F 53.6 °F 72% 30.18 in 10.0 mi SSW 15.0 mph 18.4 mph 0.29 in   Clear
2:15 AM 62.6 °F 53.6 °F 72% 30.18 in 10.0 mi SSW 16.1 mph 19.6 mph 0.32 in   Clear
2:35 AM 62.6 °F 53.6 °F 72% 30.19 in 10.0 mi SSW 15.0 mph - 0.95 in   Clear
2:55 AM 62.6 °F 53.6 °F 72% 30.19 in 10.0 mi SSW 13.8 mph 19.6 mph 1.50 in   Clear
3:15 AM 62.6 °F 53.6 °F 72% 30.19 in 10.0 mi SW 12.7 mph - 0.31 in   Clear
3:35 AM 60.8 °F 53.6 °F 77% 30.18 in 10.0 mi SSW 11.5 mph - 0.43 in   Clear
3:55 AM 60.8 °F 53.6 °F 77% 30.18 in 10.0 mi SSW 12.7 mph 17.3 mph 0.72 in   Clear
4:15 AM 62.6 °F 53.6 °F 72% 30.17 in 10.0 mi SSW 11.5 mph 17.3 mph 0.25 in   Partly Cloudy
4:35 AM 62.6 °F 53.6 °F 72% 30.17 in 10.0 mi SSW 12.7 mph 18.4 mph 0.51 in   Mostly Cloudy
4:55 AM 62.6 °F 53.6 °F 72% 30.17 in 10.0 mi SSW 11.5 mph 18.4 mph 0.71 in   Overcast
5:15 AM 62.6 °F 53.6 °F 72% 30.17 in 10.0 mi SSW 12.7 mph - 0.15 in   Mostly Cloudy
5:35 AM 62.6 °F 55.4 °F 77% 30.17 in 10.0 mi SSW 11.5 mph 18.4 mph 0.15 in   Mostly Cloudy
5:55 AM 64.4 °F 55.4 °F 73% 30.17 in 10.0 mi SSW 13.8 mph - 0.15 in   Mostly Cloudy
6:15 AM 64.4 °F 55.4 °F 73% 30.17 in 10.0 mi SSW 13.8 mph - N/A   Overcast
6:35 AM 64.4 °F 55.4 °F 73% 30.17 in 10.0 mi SSW 13.8 mph 19.6 mph N/A   Overcast
6:55 AM 64.4 °F 55.4 °F 73% 30.17 in 10.0 mi SSW 12.7 mph 18.4 mph N/A   Overcast
7:15 AM 64.4 °F 55.4 °F 73% 30.17 in 10.0 mi SSW 12.7 mph 20.7 mph N/A   Overcast
7:35 AM 64.4 °F 55.4 °F 73% 30.17 in 10.0 mi SSW 15.0 mph 20.7 mph N/A   Overcast
7:55 AM 64.4 °F 55.4 °F 73% 30.17 in 10.0 mi SSW 15.0 mph 21.9 mph N/A   Overcast
8:15 AM 64.4 °F 57.2 °F 77% 30.17 in 10.0 mi SSW 12.7 mph - N/A   Overcast
8:35 AM 64.4 °F 57.2 °F 77% 30.17 in 10.0 mi SSW 15.0 mph 20.7 mph N/A   Overcast
8:55 AM 66.2 °F 57.2 °F 73% 30.17 in 10.0 mi SSW 16.1 mph 21.9 mph N/A   Overcast
9:15 AM 66.2 °F 57.2 °F 73% 30.17 in 10.0 mi SSW 15.0 mph 23.0 mph N/A   Overcast
9:35 AM 66.2 °F 57.2 °F 73% 30.18 in 10.0 mi SSW 15.0 mph 20.7 mph N/A   Overcast
9:55 AM 66.2 °F 57.2 °F 73% 30.17 in 10.0 mi SSW 13.8 mph 19.6 mph N/A   Overcast
10:15 AM 66.2 °F 57.2 °F 73% 30.16 in 10.0 mi SSW 15.0 mph 23.0 mph N/A   Overcast
10:35 AM 66.2 °F 57.2 °F 73% 30.16 in 10.0 mi SSW 13.8 mph 19.6 mph N/A   Overcast
10:55 AM 66.2 °F 57.2 °F 73% 30.16 in 10.0 mi SSW 13.8 mph 20.7 mph N/A   Overcast
11:15 AM 66.2 °F 57.2 °F 73% 30.15 in 10.0 mi SSW 15.0 mph 20.7 mph N/A   Overcast
11:35 AM 66.2 °F 59.0 °F 78% 30.16 in 10.0 mi SSW 13.8 mph 19.6 mph N/A   Overcast
11:55 AM 68.0 °F 59.0 °F 73% 30.15 in 10.0 mi SSW 13.8 mph 23.0 mph N/A   Overcast
12:15 PM 69.8 °F 60.8 °F 73% 30.14 in 10.0 mi SSW 13.8 mph 21.9 mph N/A   Overcast
12:35 PM 69.8 °F 60.8 °F 73% 30.13 in 10.0 mi SSW 15.0 mph 18.4 mph N/A   Overcast
12:55 PM 69.8 °F 60.8 °F 73% 30.12 in 10.0 mi SSW 13.8 mph 21.9 mph N/A   Overcast
1:15 PM 69.8 °F 59.0 °F 68% 30.09 in 10.0 mi SSW 15.0 mph 23.0 mph N/A   Scattered Clouds
1:35 PM 69.8 °F 60.8 °F 73% 30.07 in 10.0 mi SSW 18.4 mph 23.0 mph N/A   Clear
1:55 PM 71.6 °F 60.8 °F 69% 30.07 in 10.0 mi SSW 17.3 mph 25.3 mph N/A   Clear
2:15 PM 69.8 °F 60.8 °F 73% 30.08 in 10.0 mi SSW 15.0 mph 21.9 mph N/A   Clear
2:35 PM 69.8 °F 60.8 °F 73% 30.07 in 10.0 mi SSW 16.1 mph 24.2 mph N/A   Partly Cloudy
2:55 PM 71.6 °F 62.6 °F 73% 30.08 in 10.0 mi SSW 13.8 mph - N/A   Scattered Clouds
3:15 PM 71.6 °F 62.6 °F 73% 30.08 in 10.0 mi SW 15.0 mph - N/A   Mostly Cloudy
3:35 PM 69.8 °F 62.6 °F 78% 30.09 in 10.0 mi SW 17.3 mph 20.7 mph N/A   Mostly Cloudy
3:55 PM 69.8 °F 62.6 °F 78% 30.10 in 10.0 mi SW 18.4 mph 24.2 mph N/A   Overcast
4:15 PM 69.8 °F 62.6 °F 78% 30.09 in 10.0 mi SW 17.3 mph 26.5 mph N/A   Overcast
4:35 PM 69.8 °F 62.6 °F 78% 30.09 in 10.0 mi SSW 16.1 mph 21.9 mph N/A   Overcast
4:55 PM 69.8 °F 62.6 °F 78% 30.09 in 10.0 mi SSW 15.0 mph - N/A   Overcast
5:15 PM 68.0 °F 62.6 °F 83% 30.09 in 10.0 mi SSW 16.1 mph 21.9 mph N/A   Overcast
5:35 PM 68.0 °F 62.6 °F 83% 30.10 in 10.0 mi SSW 12.7 mph 18.4 mph N/A   Overcast
5:55 PM 68.0 °F 62.6 °F 83% 30.09 in 10.0 mi SSW 13.8 mph - N/A   Overcast
6:15 PM 68.0 °F 64.4 °F 88% 30.08 in 10.0 mi SSW 13.8 mph - N/A   Overcast
6:35 PM 68.0 °F 64.4 °F 88% 30.08 in 10.0 mi SSW 13.8 mph 20.7 mph 0.03 in   Overcast
6:55 PM 68.0 °F 64.4 °F 88% 30.08 in 10.0 mi SSW 13.8 mph - 0.03 in   Overcast
7:15 PM 68.0 °F 64.4 °F 88% 30.08 in 10.0 mi SSW 15.0 mph 20.7 mph 0.01 in   Overcast
7:35 PM 68.0 °F 64.4 °F 88% 30.09 in 10.0 mi SSW 13.8 mph 18.4 mph 0.02 in   Overcast
7:55 PM 68.0 °F 64.4 °F 88% 30.09 in 10.0 mi SSW 10.4 mph 17.3 mph 0.03 in   Overcast
8:15 PM 66.2 °F 62.6 °F 88% 30.09 in 10.0 mi SSW 12.7 mph - N/A   Overcast
8:35 PM 66.2 °F 62.6 °F 88% 30.10 in 10.0 mi SSW 10.4 mph - 0.01 in   Mostly Cloudy
8:55 PM 66.2 °F 64.4 °F 94% 30.11 in 10.0 mi SW 10.4 mph - 0.01 in   Mostly Cloudy
9:15 PM 66.2 °F 64.4 °F 94% 30.12 in 10.0 mi SW 6.9 mph - 0.01 in   Mostly Cloudy
9:35 PM 66.2 °F 64.4 °F 94% 30.12 in 10.0 mi SW 8.1 mph - 0.02 in   Overcast
9:55 PM 66.2 °F 64.4 °F 94% 30.13 in 10.0 mi SW 8.1 mph - 0.02 in   Overcast
10:15 PM 66.2 °F 64.4 °F 94% 30.13 in 10.0 mi SW 8.1 mph - 0.01 in   Overcast
10:35 PM 68.0 °F 64.4 °F 88% 30.13 in 10.0 mi SW 9.2 mph - 0.08 in   Overcast
10:55 PM 68.0 °F 64.4 °F 88% 30.12 in 10.0 mi SSW 11.5 mph - 0.09 in   Overcast
11:15 PM 68.0 °F 64.4 °F 88% 30.12 in 10.0 mi SSW 9.2 mph - 0.05 in   Overcast
11:35 PM 68.0 °F 64.4 °F 88% 30.12 in 10.0 mi SW 11.5 mph - 0.07 in   Overcast
11:55 PM 68.0 °F 64.4 °F 88% 30.12 in 10.0 mi SSW 11.5 mph - 0.08 in   Overcast